Tracking 22100 objects as of 20-Jan-2021
HD Live streaming from Space Station
objects crossing your sky now

ANIK F2

Track ANIK F2 now!
ANIK F2 is classified as:


NORAD ID: 28378
Int'l Code: 2004-027A
Perigee: 35,792.8 km
Apogee: 35,794.2 km
Inclination: 0.0 °
Period: 1,436.1 minutes
Semi major axis: 42164 km
RCS: 28.1838 m2 (large)
Launch date: July 18, 2004
Source: Canada (CA)
Launch site: FRENCH GUIANA (FRGUI)

24 30W C-band, 40 127W Ku-band, 50 90W transponders for broadband and telemedicine to northern US states and Canada
aabbcc
Your satellite tracking list
Your tracking list is empty




NASA's NSSDC Master Catalog

Two Line Element Set (TLE):
1 28378U 04027A   21019.88370191 -.00000044  00000-0  00000-0 0  9990
2 28378   0.0126 340.1454 0000163 326.9015  19.4784  1.00272642 21477
Source of the keplerian elements: AFSPC